Find Hainan-1 01

NORAD ID: 51825 Int'l Des: NNA 2022-019 Owner: SANYZ Country: CN operational
LEOCIRCULARRETROGRADESSO

現在のビュー

3D地球を読み込み中...

About Hainan-1 01

Hainan-1 01 (NORAD 51825) is a satellite launched Feb 27, 2022 by SANYZ of CN. It operates in LEO, CIRCULAR, RETROGRADE, SSO orbit with a mass of 55.00 kg.

次回通過

Passes for default location (London). Set your location on the main map for personalized predictions.

高度履歴

Loading altitude history...

軌道要素

1 51825U 22019B 26194.79427808 .00108012 00000-0 51137-3 0 9994
2 51825 97.3463 288.6505 0000975 322.8373 37.2829 15.82698534243964
Epoch: Jul 13, 2026 • Age: 17 hours

現在のステータス

高度 326.6 km
遠地点 / 近地点 N/A
速度 7.72 km/s
衛星直下点 32.87°N, 173.9°E
打ち上げ日 Feb 27, 2022
運用期間 4.3 years
タイプ other

技術仕様

分類 Payload
質量 55.00 kg
乾燥質量 55.00 kg
総質量 55.00 kg
長さ 0.50 m
直径 0.50 m
スパン 2.00 m
形状 Box + 2 pan
製造者 DFHS
バスタイプ Hainan-1
フェーズステータス In Orbit
所有者/国 SANYZ/CN

Most Searched